カタログに戻る

ICEYE-X77

運用中科学SSO
NORAD 69892·PAYLOAD·🇩🇪 Germany

打ち上げ Jul 7, 2026 から Vandenberg Space Force Base

Loading…

次のパス (今後24時間)

TLE

最新Source: Space-Track

元期: Sep 14, 2026, 03:39 UTC

1 69892U 26156Z   26257.15209963  .00001180  00000-0  12176-3 0  9991
2 69892  97.7449 156.4726 0005947 293.7069  66.3526 14.92056371 10263

AllMySatでICEYE-X77をリアルタイム追跡

Download on the App Store